Regional Weather Roundup
Issued by NWS San Angelo, TX

Home | Current Version | Previous Version | Text Only | Print | Product List | Glossary On
Versions: 1 2 3 4 5 6 7 8 9 10 11 12 13 14 15 16 17 18 19 20 21 22 23 24 25 26 27 28 29 30 31 32 33 34 35 36 37 38 39 40 41 42 43 44 45 46 47 48 49 50
000
ASUS44 KSJT 291810
RWRSJT
WEST CENTRAL TEXAS REGIONAL WEATHER ROUNDUP
NATIONAL WEATHER SERVICE SAN ANGELO TX
100 PM CDT FRI MAY 29 2015

NOTE: "FAIR" INDICATES FEW OR NO CLOUDS BELOW 12,000 FEET WITH NO
SIGNIFICANT WEATHER AND/OR OBSTRUCTIONS TO VISIBILITY.

TXZ049-054-064>066-071>073-076>078-098-099-113-114-127-128-139-140-
154-155-168>170-291900
...LOCATIONS ACROSS WEST CENTRAL TEXAS...

CITY           SKY/WX    TMP DP  RH WIND       PRES   REMARKS
SAN ANGELO     MOSUNNY   81  68  64 S14       29.97F
ABILENE        MOSUNNY   76  62  62 CALM      30.00F
DYESS AFB      PTSUNNY   75  61  60 E3        29.98F
JUNCTION       MOSUNNY   81  61  50 SE8       30.00F
SWEETWATER     MOSUNNY   79  62  56 SW5       30.03S
BROWNWOOD      PTSUNNY   77  64  65 SE3       29.99F
COLEMAN        MOCLDY    77  66  68 S7        29.99F
SONORA         SUNNY     81  64  57 S17       30.04F
OZONA          NOT AVBL
BRADY          SUNNY     81  66  61 S9        29.99S
$$

TEXAS PANHANDLE/OKLAHOMA PANHANDLE

CITY           SKY/WX    TMP DP  RH WIND       PRES   REMARKS
AMARILLO       SUNNY     75  56  51 N10G17    30.07F
BORGER         SUNNY     77  54  44 N8        30.04F
CANADIAN       MOSUNNY   73  62  69 NW5       30.02S
DALHART        CLOUDY    73  50  44 N12       30.11S
DUMAS          CLEAR     73  50  43 NE9       30.08S
GUYMON         NOT AVBL
HEREFORD       CLEAR     76  58  52 MISG      30.08F
PAMPA          PTCLDY    72  58  60 NE8       30.06S
PERRYTON       PTSUNNY   73  60  63 N7        30.05S
$$

SOUTHERN PANHANDLE/SOUTH PLAINS/ROLLING PLAINS

CITY           SKY/WX    TMP DP  RH WIND       PRES   REMARKS
LUBBOCK        MOSUNNY   77  60  55 N9        30.04S
SNYDER         MOSUNNY   76  62  61 SW6       30.01S
CHILDRESS      MOSUNNY   74  61  63 N8        29.99F
SEMINOLE       CLEAR     80  57  46 E7        30.04S
$$

PERMIAN BASIN

CITY           SKY/WX    TMP DP  RH WIND       PRES   REMARKS
MIDLAND        MOSUNNY   76  62  62 S6        30.01S
ODESSA         SUNNY     75  60  59 E3        30.01F
WINK           SUNNY     80  58  46 VRB3      29.98F
$$

FAR WEST/SOUTHWEST MOUNTAINS/TRANS PECOS

CITY           SKY/WX    TMP DP  RH WIND       PRES   REMARKS
ALPINE         CLEAR     88  34  14 CALM      30.11F
DRYDEN           N/A     82  66  58 S12       29.95F
EL PASO        MOSUNNY   89  22   8 CALM      30.04S
FORT STOCKTON  SUNNY     75  61  61 NW10      30.01S
GUADALUPE PASS SUNNY     75  50  41 E9        30.15S
MARFA          SUNNY     84  37  18 W9        30.11F
PECOS          CLEAR     78  56  47 CALM      30.00S
$$

DALLAS/FORT WORTH METROPLEX

CITY           SKY/WX    TMP DP  RH WIND       PRES   REMARKS
DFW AIRPORT    CLOUDY    72  67  84 W9        29.95R
FTW MEACHAM    CLOUDY    72  66  81 NW7       29.96R
DAL-EXECUTIVE  CLOUDY    72  67  84 W7        29.96R
GRAND PRAIRIE  CLOUDY    72  68  88 W5        29.99R
ADDISON        PTSUNNY   75  68  78 W6        29.95S
MESQUITE       MOCLDY    77  68  73 SW10      29.94F
LANCASTER      CLOUDY    73  65  77 SW8       29.97S
$$

NORTH CENTRAL TEXAS

CITY           SKY/WX    TMP DP  RH WIND       PRES   REMARKS
SHRMAN/DENISON CLOUDY    74  71  89 NW10      29.95S
GAINESVILLE    CLOUDY    69  66  88 W10G17    29.96S
BRIDGEPORT     CLOUDY    72  67  83 CALM      29.98S
DENTON         CLOUDY    73  67  81 NW10      29.95R
WAXAHACHIE     CLOUDY    72  68  87 W7        29.99R
GRANBURY       MOCLDY    78  66  68 SW6       29.99S
$$

WESTERN NORTH TEXAS

CITY           SKY/WX    TMP DP  RH WIND       PRES   REMARKS
WICHITA FALLS  CLOUDY    76  63  64 CALM      29.96S
VERNON         MOCLDY    80  59  49 W5        29.98F
BRECKENRIDGE   MOCLDY    76  63  62 SW6       29.98F
COMANCHE       MOSUNNY   78  63  60 CALM      30.00S
$$

CENTRAL AND SOUTH CENTRAL TEXAS

CITY           SKY/WX    TMP DP  RH WIND       PRES   REMARKS
AUSTIN/BERGSTM MOSUNNY   81  67  62 VRB3      29.98S
WACO           SUNNY     80  65  59 VRB3      29.97F
HILLSBORO      MOCLDY    76  64  67 W6        29.98S
TEMPLE         SUNNY     79  63  57 S3        29.97F
KILLEEN-GRAY   MOSUNNY   79  63  57 VRB6      29.98F
FORT HOOD      SUNNY     77  64  63 W3        29.97F
GEORGETOWN     SUNNY     81  64  57 CALM      29.97F
LAGO VISTA     FAIR      79  63  58 SW6       30.00F
SAN MARCOS     SUNNY     84  64  51 SW5       29.99S
NEW BRAUNFELS  SUNNY     84  65  52 SW10      29.98S
RANDOLPH AFB   MOSUNNY   82  66  58 S6        29.99R
SAN ANTONIO    MOSUNNY   83  65  54 VRB5      30.00S
STINSON        SUNNY     83  66  56 S9        29.97S
PLEASANTON     NOT AVBL
LA GRANGE      SUNNY     83  67  59 NW6       29.97S
GIDDINGS       CLEAR     81  65  57 W6        30.02F
$$

EAST TEXAS

CITY           SKY/WX    TMP DP  RH WIND       PRES   REMARKS
PARIS          CLOUDY    79  66  65 SW10G20   29.92S
CLARKSVILLE    NOT AVBL
TYLER          CLOUDY    79  66  64 S14       29.94F
LONGVIEW       CLOUDY    83  72  69 S15G23    29.93F
PALESTINE      PTCLDY    78  68  70 SW9       29.98F
NACOGDOCHES    CLOUDY    81  73  78 S15G21    29.97R
$$

TEXAS HILL COUNTRY AND EDWARDS PLATEAU

CITY           SKY/WX    TMP DP  RH WIND       PRES   REMARKS
LLANO          PTCLDY    81  66  61 S3        30.02F
HORSESHOE BAY  FAIR      83  67  57 SW5       29.99F
KERRVILLE      SUNNY     80  67  64 SW14      30.02S
FREDERICKSBRG  SUNNY     80  63  55 S12       30.02S
ROCKSPRINGS    CLEAR     79  64  61 S15       30.05S
HONDO          SUNNY     81  68  64 W13       30.01F
UVALDE         PTCLDY    78  68  72 SW10      30.01S
DEL RIO        PTSUNNY   81  67  62 SE14G22   29.95F
$$

SOUTHEAST TEXAS

CITY           SKY/WX    TMP DP  RH WIND       PRES   REMARKS
COLLEGE STN    MOSUNNY   79  67  66 SW8       29.98F
CALDWELL       PTCLDY    79  70  73 W5        30.02R
CROCKETT       NOT AVBL
BRENHAM        SUNNY     83  68  60 W5        29.98S
HUNTSVILLE     PTSUNNY   80  68  66 VRB7      29.98S
CONROE         CLOUDY    78  69  73 VRB6      29.99R
HOUSTON BUSH   PTSUNNY   83  69  62 VRB5      29.97R
HOUSTON HOBBY  PTSUNNY   84  69  60 VRB7      29.97R
PERLAND        CLOUDY    84  68  58 SE9       29.98R
WHARTON        PTCLDY    81  67  64 NW5       30.00S
$$

THE UPPER TEXAS COAST

CITY           SKY/WX    TMP DP  RH WIND       PRES   REMARKS
ORANGE         CLOUDY    82  73  74 S8        30.02S
PORT ARTHUR    CLOUDY    83  73  72 SE20G26   29.98F
GALVESTON      CLOUDY    83  73  72 SE17      29.98F
ANGLETON       CLOUDY    79  68  69 SW6       29.98R
BAY CITY       MOCLDY    81  69  67 W7        29.99R
$$

TEXAS COASTAL BEND, RIO GRANDE PLAINS DEEP SOUTH TEXAS

CITY           SKY/WX    TMP DP  RH WIND       PRES   REMARKS
VICTORIA       SUNNY     84  69  60 W7        29.98R
BEEVILLE       FAIR      86  69  57 S7        29.97S
ROCKPORT       PTSUNNY   84  71  65 E8        29.97R
PORT ARANSAS   MOCLDY    83  71  65 E6        29.97R
PORT LAVACA    CLEAR     83  70  65 CALM      29.99R
CORPUS CHRISTI MOSUNNY   85  71  63 S7        29.97R
KINGSVILLE NAS MOSUNNY   85  75  72 S14       29.97R
COTULLA        SUNNY     83  70  64 E3        29.97F
LAREDO         MOSUNNY   86  70  58 S14       29.99S
BROWNSVILLE    LGT RAIN  74  71  91 NW15G36   29.94F
PORT ISABEL    CLOUDY    76  73  91 E25G35    29.94F
HEBBRONVILLE     N/A     85  67  54 S14       30.00R
MCALLEN        SUNNY     86  69  56 E20       29.98F
WESLACO        MOSUNNY   82  71  67 SE15G21   29.98S
FALFURRIAS     CLEAR     85  70  61 SE13      29.97S
EDINBURG       CLEAR     85  71  63 SE16      29.99S
$$


USA.gov is the U.S. government's official web portal to all federal, state and local government web resources and services.